Weather History for Robinson, IL

Change the Weather History Date:

Tuesday, February 28, 2012

  Actual Average (KLWV) Record (KLWV)
Temperature  
Mean Temperature 42 °F 40 °F  
Max Temperature 58 °F 49 °F 68 °F (2011)
Min Temperature 25 °F 30 °F 5 °F (1993)
Degree Days  
Heating Degree Days 24 25  
Month to date heating degree days 825  
Since 1 July heating degree days 3675  
Cooling Degree Days 0 0  
Month to date cooling degree days 0  
Year to date cooling degree days 0  
Moisture  
Dew Point 25 °F    
Average Humidity 53    
Maximum Humidity 82    
Minimum Humidity 28    
Precipitation  
Precipitation 0.00 in 0.06 in 1.13 in (1984)
Month to date precipitation 2.01  
Year to date precipitation 4.39  
Sea Level Pressure  
Sea Level Pressure 30.31 in    
Wind  
Wind Speed 5 mph (East)    
Max Wind Speed 9 mph    
Max Gust Speed -    
Visibility 10 miles    
Events      
T = Trace of Precipitation, MM = Missing Value Source: NWS Daily Summary

Daily Weather History Graph

Daily Weather History Graph

Search for Another Location

Airport:

Trip Planner

Search our weather history database for the weather conditions in past years. The results will help you decide how hot, cold, wet, or windy it might be!

Date:

Astronomy

Feb. 28, 2012 Rise Set
Actual Time 6:25 AM CST 5:41 PM CST
Civil Twilight 5:58 AM CST 6:08 PM CST
Nautical Twilight 5:27 AM CST 6:39 PM CST
Astronomical Twilight 4:56 AM CST 7:10 PM CST
Moon 9:36 AM CST (2/28) No Moon Set
Length of Visible Light 12h 10m
Length of Day
11h 16m
Waxing Crescent, 38% of the Moon is Illuminated
Feb 28
Waxing Crescent
Feb 29
First Quarter
Mar 8
Full
Mar 14
Last Quarter
Mar 22
New

Hourly Weather History & Observations

Time (CST) Temp. Windchill Dew Point Humidity Pressure Visibility Wind Dir Wind Speed Gust Speed Precip Events Conditions
12:15 AM 25.9 °F - 20.7 °F 81% 30.47 in 10.0 mi Calm Calm - N/A   Clear
12:35 AM 25.0 °F 20.7 °F 20.3 °F 82% 30.47 in 10.0 mi NNE 3.5 mph - N/A   Clear
12:55 AM 25.5 °F 18.7 °F 20.5 °F 81% 30.46 in 10.0 mi North 5.8 mph - N/A   Clear
2:15 AM 31.1 °F 24.5 °F 23.0 °F 72% 30.46 in 10.0 mi North 6.9 mph - N/A   Clear
2:35 AM 30.9 °F 25.2 °F 23.0 °F 72% 30.45 in 10.0 mi North 5.8 mph - N/A   Clear
2:55 AM 31.1 °F 25.4 °F 23.0 °F 72% 30.44 in 10.0 mi NNE 5.8 mph - N/A   Clear
3:15 AM 30.7 °F 26.0 °F 23.0 °F 73% 30.44 in 10.0 mi NNE 4.6 mph - N/A   Clear
3:55 AM 29.5 °F 25.9 °F 22.5 °F 75% 30.44 in 10.0 mi ENE 3.5 mph - N/A   Clear
4:15 AM 30.7 °F 24.1 °F 22.5 °F 71% 30.43 in 10.0 mi East 6.9 mph - N/A   Clear
4:35 AM 29.8 °F 24.9 °F 22.1 °F 73% 30.43 in 10.0 mi East 4.6 mph - N/A   Clear
4:55 AM 29.3 °F 24.3 °F 21.7 °F 73% 30.43 in 10.0 mi East 4.6 mph - N/A   Clear
5:15 AM 27.1 °F - 20.7 °F 77% 30.43 in 10.0 mi Calm Calm - N/A   Clear
5:35 AM 27.7 °F 21.3 °F 20.8 °F 75% 30.43 in 10.0 mi East 5.8 mph - N/A   Clear
5:55 AM 29.7 °F - 21.9 °F 73% 30.44 in 10.0 mi Calm Calm - N/A   Clear
6:15 AM 27.7 °F 23.8 °F 20.5 °F 74% 30.44 in 10.0 mi NNE 3.5 mph - N/A   Clear
6:35 AM 27.7 °F 22.4 °F 22.6 °F 81% 30.43 in 10.0 mi NE 4.6 mph - N/A   Clear
6:55 AM 28.6 °F 23.5 °F 23.5 °F 81% 30.42 in 10.0 mi ENE 4.6 mph - N/A   Clear
7:15 AM 30.4 °F 26.9 °F 24.6 °F 79% 30.42 in 10.0 mi NE 3.5 mph - N/A   Clear
7:35 AM 32.9 °F 28.5 °F 25.0 °F 73% 30.42 in 10.0 mi ENE 4.6 mph - N/A   Clear
7:55 AM 34.2 °F 29.0 °F 24.8 °F 69% 30.41 in 10.0 mi ENE 5.8 mph - N/A   Clear
8:15 AM 36.1 °F 29.3 °F 25.3 °F 65% 30.41 in 10.0 mi East 9.2 mph - N/A   Scattered Clouds
8:35 AM 37.9 °F 32.7 °F 25.9 °F 62% 30.40 in 10.0 mi East 6.9 mph - N/A   Scattered Clouds
8:55 AM 40.3 °F 34.9 °F 25.3 °F 55% 30.39 in 10.0 mi East 8.1 mph - N/A   Clear
9:15 AM 42.1 °F 37.1 °F 24.6 °F 50% 30.38 in 10.0 mi East 8.1 mph - N/A   Clear
9:35 AM 44.2 °F 39.7 °F 23.2 °F 43% 30.37 in 10.0 mi East 8.1 mph - N/A   Scattered Clouds
9:55 AM 46.2 °F 41.7 °F 23.4 °F 41% 30.35 in 10.0 mi East 9.2 mph - N/A   Scattered Clouds
10:15 AM 48.6 °F - 23.0 °F 37% 30.35 in 10.0 mi East 5.8 mph - N/A   Scattered Clouds
10:35 AM 48.4 °F - 23.2 °F 37% 30.33 in 10.0 mi East 8.1 mph - N/A   Mostly Cloudy
10:55 AM 50.9 °F - 22.8 °F 33% 30.32 in 10.0 mi East 6.9 mph - N/A   Overcast
11:15 AM 52.7 °F - 22.3 °F 31% 30.31 in 10.0 mi East 9.2 mph - N/A   Overcast
11:35 AM 53.1 °F - 22.1 °F 30% 30.31 in 10.0 mi ESE 6.9 mph - N/A   Overcast
11:55 AM 53.4 °F - 22.5 °F 30% 30.29 in 10.0 mi ESE 6.9 mph - N/A   Overcast
12:15 PM 53.6 °F - 23.0 °F 30% 30.27 in 10.0 mi ESE 8.1 mph - N/A   Overcast
12:35 PM 53.6 °F - 23.2 °F 31% 30.25 in 10.0 mi ESE 5.8 mph - N/A   Overcast
12:55 PM 53.8 °F - 24.3 °F 32% 30.24 in 10.0 mi ESE 9.2 mph - N/A   Overcast
1:35 PM 55.6 °F - 25.0 °F 31% 30.21 in 10.0 mi East 6.9 mph - N/A   Overcast
1:55 PM 57.0 °F - 23.9 °F 28% 30.19 in 10.0 mi East 8.1 mph - N/A   Mostly Cloudy
2:15 PM 56.1 °F - 25.3 °F 31% 30.19 in 10.0 mi East 8.1 mph - N/A   Overcast
2:35 PM 56.3 °F - 26.6 °F 32% 30.16 in 10.0 mi East 8.1 mph - N/A   Overcast
2:55 PM 56.3 °F - 26.8 °F 32% 30.15 in 10.0 mi East 9.2 mph - N/A   Overcast
3:15 PM 56.7 °F - 28.4 °F 34% 30.14 in 10.0 mi East 5.8 mph - N/A   Overcast
3:35 PM 57.4 °F - 28.4 °F 33% 30.13 in 10.0 mi East 8.1 mph - N/A   Overcast
3:55 PM 58.5 °F - 28.9 °F 33% 30.12 in 10.0 mi East 8.1 mph - N/A   Overcast
4:15 PM 58.1 °F - 29.3 °F 33% 30.11 in 10.0 mi East 6.9 mph - N/A   Overcast
4:35 PM 57.7 °F - 30.4 °F 35% 30.11 in 10.0 mi East 5.8 mph - N/A   Overcast
4:55 PM 57.2 °F - 31.6 °F 38% 30.10 in 10.0 mi East 3.5 mph - N/A   Overcast
5:15 PM 55.9 °F - 32.0 °F 40% 30.09 in 10.0 mi East 3.5 mph - N/A   Overcast
5:35 PM 55.9 °F - 32.5 °F 41% 30.09 in 10.0 mi Calm Calm - N/A   Overcast
5:55 PM 54.5 °F - 34.0 °F 46% 30.07 in 10.0 mi East 5.8 mph - N/A   Overcast
6:15 PM 55.4 °F - 33.3 °F 43% 30.07 in 10.0 mi East 5.8 mph - N/A   Overcast
6:35 PM 55.4 °F - 33.4 °F 43% 30.07 in 10.0 mi East 6.9 mph - N/A   Overcast
6:55 PM 55.2 °F - 33.8 °F 44% 30.06 in 10.0 mi East 6.9 mph - N/A   Overcast
7:15 PM 55.4 °F - 33.3 °F 43% 30.05 in 10.0 mi East 6.9 mph - N/A   Overcast
7:35 PM 55.4 °F - 32.9 °F 43% 30.02 in 10.0 mi East 8.1 mph - N/A   Overcast
7:55 PM 55.9 °F - 32.0 °F 40% 30.02 in 10.0 mi East 8.1 mph - N/A   Overcast
8:15 PM 56.5 °F - 31.8 °F 39% 30.00 in 10.0 mi East 10.4 mph - N/A   Overcast
8:35 PM 56.8 °F - 31.8 °F 39% 29.97 in 10.0 mi East 11.5 mph - N/A   Overcast
8:55 PM 56.3 °F - 32.0 °F 40% 29.95 in 10.0 mi East 12.7 mph - N/A Thunderstorm Mostly Cloudy
9:15 PM 57.0 °F - 32.5 °F 40% 29.93 in 10.0 mi East 11.5 mph - N/A   Overcast
9:55 PM 55.9 °F - 38.7 °F 52% 29.90 in 10.0 mi ESE 10.4 mph 20.7 mph N/A Rain , Thunderstorm Light Thunderstorms and Rain
10:15 PM 53.2 °F - 42.1 °F 66% 29.88 in 7.0 mi SE 13.8 mph - 0.03 in Rain , Thunderstorm Thunderstorms and Rain
10:35 PM 55.2 °F - 42.4 °F 62% 29.86 in 10.0 mi SE 12.7 mph - 0.03 in   Overcast
10:55 PM 55.8 °F - 43.7 °F 64% 29.82 in 10.0 mi SE 13.8 mph 18.4 mph 0.03 in Thunderstorm Overcast
11:15 PM 57.4 °F - 45.5 °F 65% 29.80 in 10.0 mi SE 16.1 mph - N/A Thunderstorm Thunderstorm
11:35 PM 58.1 °F - 49.1 °F 72% 29.80 in 10.0 mi SSE 17.3 mph 20.7 mph N/A Rain , Thunderstorm Light Thunderstorms and Rain
11:55 PM 58.1 °F - 49.5 °F 73% 29.80 in 10.0 mi South 15.0 mph 27.6 mph 0.01 in Rain , Thunderstorm Light Thunderstorms and Rain